Weather in Otaru

Japan     43°10′34″N   141°02′28″E
temp.,
°C
wind,
m/s
gust,
m/s
humid.,
%
clouds,
%
prec.,
mm/h
press.,
hPa
HPBL,
m
29 november, mon
mon2900:00+4s57685 0.0 1026584
03:00+4s5766100 0.0 1025440
06:00+5s5870100 0.0 1023493
09:00+7s4772100 0.1 1022377
12:00+8sw4107796 0.0 1020864
15:00+10sw9157710 0.1 10191305
18:00+9wsw7127818 0.1 10191102
21:00+8wsw7117595 0.3 10201162
30 november, tue
tue3000:00+8w5680100 0.4 1020741
03:00+8sw347854 0.7 1020546
06:00+7wsw467567 0.2 1021837
09:00+7s1272100 0.3 1021327
12:00+8ese3371100 0.0 1019452
15:00+9se447198 0.0 1015394
18:00+8se5683100 0.0 1013224
21:00+9se81186100 0.0 1008495
1 december, wed
wed100:00+9se6883100 0.0 1003431
03:00+11se81869100 0.1 9981399
06:00+11sse81979100 2.8 9951384
09:00+11w7986100 4.6 991578
12:00+8sw10216794 2.6 9881916
15:00+5sw12216511 2.8 9901673
18:00+2wsw9148799 1.3 9921496
21:00+1wsw121980100 2.9 9931987
2 december, thu
thu200:000wsw15218499 0.9 9932093
03:000w162084100 2.7 9942134
06:00−1w16208499 1.1 9962266
09:00−1w172287100 3.4 9992370
12:00+1w182368100 1.3 10012599
15:00+2w15196396 1.4 10052250
18:00+3wsw13187390 0.2 10081798
21:00+4wsw9167479 0.5 10091802
3 december, fri
fri300:00+2se547588 0.0 1009255
03:00+3sse578777 0.4 1007277
06:00+6sw71890100 6.9 10051530
09:00+7sw7198192 9.8 10061656
12:00+7sw81587100 4.3 10061353
15:00+5wsw81290100 7.3 10081000
18:00+4sw6117614 0.8 10101208
21:00+3sw697297 0.8 10121225